FW7016 Weather Reports


Display with metric or nautical units.
time (UTC)temp
F
wind
direction
speed
MPH
gust
MPH
rain 1hr
in
rain 24hr
in
rain mn
in
humidity
%
barometer
mb
20260831084838 58 223 2.0 5.0 0.00 0.00 0.00 72 1020.6
20260831084335 58 216 3.0 6.0 0.00 0.00 0.00 74 1020.4
20260831083831 58 273 5.0 7.0 0.00 0.00 0.00 74 1020.2
20260831083327 58 261 3.0 5.0 0.00 0.00 0.00 72 1020.7
20260831082825 57 223 3.0 5.0 0.00 0.00 0.00 75 1020.3
20260831082320 58 326 5.0 6.0 0.00 0.00 0.00 75 1020.4
20260831081816 59 192 0.0 2.0 0.00 0.00 0.00 71 1020.2
20260831081311 59 241 0.0 0.0 0.00 0.00 0.00 71 1020.3
20260831080806 59 286 4.0 6.0 0.00 0.00 0.00 69 1020.6
20260831080301 60 240 5.0 7.0 0.00 0.00 0.00 73 1020.7
20260831075757 61 229 2.0 2.0 0.00 0.00 0.00 67 1020.4
20260831075252 58 219 3.0 3.0 0.00 0.00 0.00 69 1020.4
20260831074752 58 201 0.0 0.0 0.00 0.00 0.00 75 1020.6
20260831074245 58 221 2.0 3.0 0.00 0.00 0.00 73 1020.4
20260831073742 57 241 0.0 0.0 0.00 0.00 0.00 75 1020.7
20260831073240 58 212 1.0 2.0 0.00 0.00 0.00 76 1020.7
20260831072736 59 200 2.0 2.0 0.00 0.00 0.00 74 1020.6
20260831072232 58 199 2.0 2.0 0.00 0.00 0.00 74 1020.7
20260831071726 57 219 2.0 5.0 0.00 0.00 0.00 76 1020.7
20260831071221 58 204 0.0 0.0 0.00 0.00 0.00 76 1020.8
20260831070720 60 196 0.0 0.0 0.00 0.00 0.00 73 1020.9
20260831070215 60 197 0.0 0.0 0.00 0.00 0.00 70 1020.9
20260831065714 61 195 0.0 0.0 0.00 0.00 0.00 71 1020.9
20260831065213 61 197 0.0 0.0 0.00 0.00 0.00 67 1020.8
20260831064708 61 227 2.0 3.0 0.00 0.00 0.00 68 1021.0
20260831064203 60 241 3.0 6.0 0.00 0.00 0.00 66 1021.2
20260831063659 60 212 2.0 2.0 0.00 0.00 0.00 71 1021.0
20260831063154 60 181 1.0 2.0 0.00 0.00 0.00 70 1021.2
20260831062654 60 224 3.0 3.0 0.00 0.00 0.00 69 1021.3
20260831062153 62 279 4.0 6.0 0.00 0.00 0.00 69 1021.3
20260831061651 61 251 5.0 6.0 0.00 0.00 0.00 67 1021.2
20260831061148 62 232 4.0 5.0 0.00 0.00 0.00 68 1021.0
20260831060638 63 221 3.0 5.0 0.00 0.00 0.00 63 1020.9
20260831060138 62 257 4.0 6.0 0.00 0.00 0.00 64 1021.3
20260831055637 61 216 4.0 8.0 0.00 0.00 0.00 66 1021.3
20260831055132 60 218 2.0 3.0 0.00 0.00 0.00 70 1021.0
20260831054632 60 219 3.0 5.0 0.00 0.00 0.00 71 1021.3
20260831054131 62 223 3.0 3.0 0.00 0.00 0.00 68 1021.4
20260831053626 62 256 3.0 5.0 0.00 0.00 0.00 66 1021.0
20260831053125 62 211 3.0 5.0 0.00 0.00 0.00 68 1021.3
20260831052625 61 198 0.0 0.0 0.00 0.00 0.00 69 1021.3
20260831052124 61 199 0.0 0.0 0.00 0.00 0.00 69 1021.4
20260831051622 61 213 0.0 0.0 0.00 0.00 0.00 70 1021.0
20260831051121 61 196 0.0 2.0 0.00 0.00 0.00 70 1021.3
20260831050616 62 195 0.0 0.0 0.00 0.00 0.00 69 1021.2
20260831050115 62 192 0.0 1.0 0.00 0.00 0.00 67 1021.2
20260831045614 62 203 0.0 0.0 0.00 0.00 0.00 68 1021.2
20260831045110 62 204 1.0 2.0 0.00 0.00 0.00 68 1021.4
20260831044605 61 207 2.0 2.0 0.00 0.00 0.00 71 1021.3
20260831044100 62 212 2.0 3.0 0.00 0.00 0.00 69 1021.4
20260831043555 63 214 2.0 5.0 0.00 0.00 0.00 66 1021.4
20260831043051 62 228 3.0 5.0 0.00 0.00 0.00 66 1021.5
20260831042550 63 226 5.0 7.0 0.00 0.00 0.00 66 1021.4
20260831042045 63 242 4.0 6.0 0.00 0.00 0.00 65 1021.6
20260831041540 63 244 4.0 7.0 0.00 0.00 0.00 66 1021.5
20260831041039 63 234 5.0 7.0 0.00 0.00 0.00 65 1021.4
20260831040534 62 242 4.0 6.0 0.00 0.00 0.00 66 1021.4
20260831040033 62 230 3.0 5.0 0.00 0.00 0.00 65 1021.4
20260831035525 61 238 4.0 6.0 0.00 0.00 0.00 70 1021.4
20260831035021 62 210 4.0 6.0 0.00 0.00 0.00 67 1021.3
20260831034515 63 225 0.0 0.0 0.00 0.00 0.00 66 1021.2
20260831034010 63 203 4.0 6.0 0.00 0.00 0.00 65 1021.3
20260831033506 62 210 2.0 2.0 0.00 0.00 0.00 66 1020.9
20260831033001 62 211 2.0 3.0 0.00 0.00 0.00 66 1021.4
20260831032501 62 204 1.0 2.0 0.00 0.00 0.00 66 1021.3
20260831031956 62 199 0.0 0.0 0.00 0.00 0.00 66 1021.0
20260831031456 62 198 0.0 0.0 0.00 0.00 0.00 67 1021.2
20260831030955 61 199 0.0 0.0 0.00 0.00 0.00 67 1020.9
20260831030454 61 207 1.0 2.0 0.00 0.00 0.00 67 1020.9
20260831025952 62 206 2.0 3.0 0.00 0.00 0.00 68 1021.2
20260831025452 62 208 3.0 5.0 0.00 0.00 0.00 64 1020.7
20260831024947 62 209 3.0 3.0 0.00 0.00 0.00 65 1021.0
20260831024443 61 201 0.0 0.0 0.00 0.00 0.00 65 1020.9
20260831023942 61 199 2.0 2.0 0.00 0.00 0.00 67 1020.7
20260831023440 61 212 5.0 6.0 0.00 0.00 0.00 67 1020.8
20260831022936 59 213 5.0 7.0 0.00 0.00 0.00 70 1020.7
20260831022434 60 208 3.0 3.0 0.00 0.00 0.00 73 1020.4
20260831021930 61 212 4.0 5.0 0.00 0.00 0.00 69 1020.3
20260831021424 62 209 3.0 3.0 0.00 0.00 0.00 67 1020.2
20260831020920 63 216 5.0 7.0 0.00 0.00 0.00 63 1020.3
20260831020419 62 196 4.0 5.0 0.00 0.00 0.00 64 1020.4
20260831015914 63 190 4.0 5.0 0.00 0.00 0.00 63 1020.2
20260831015410 64 200 5.0 6.0 0.00 0.00 0.00 62 1020.3
20260831014904 64 179 6.0 7.0 0.00 0.00 0.00 60 1020.4
20260831014359 63 180 7.0 9.0 0.00 0.00 0.00 61 1020.3
20260831013855 62 192 8.0 9.0 0.00 0.00 0.00 67 1020.2
20260831013350 62 218 6.0 8.0 0.00 0.00 0.00 65 1020.1
20260831012844 64 212 5.0 7.0 0.00 0.00 0.00 64 1019.9
20260831012339 62 214 7.0 8.0 0.00 0.00 0.00 63 1020.1
20260831011834 62 227 7.0 8.0 0.00 0.00 0.00 65 1020.0
20260831011329 63 225 6.0 7.0 0.00 0.00 0.00 65 1019.9
20260831010824 63 212 7.0 7.0 0.00 0.00 0.00 64 1020.0
20260831010323 64 228 7.0 7.0 0.00 0.00 0.00 65 1019.7
20260831005819 65 224 5.0 6.0 0.00 0.00 0.00 62 1019.7
20260831005315 65 235 5.0 7.0 0.00 0.00 0.00 60 1020.0
20260831004809 66 222 5.0 7.0 0.00 0.00 0.00 59 1020.4
20260831004306 66 234 4.0 6.0 0.00 0.00 0.00 58 1020.1
20260831003801 66 223 7.0 9.0 0.00 0.00 0.00 58 1020.2
20260831003258 67 228 7.0 9.0 0.00 0.00 0.00 58 1020.0
20260831002757 68 248 7.0 8.0 0.00 0.00 0.00 55 1020.2
20260831002256 69 242 8.0 13.0 0.00 0.00 0.00 52 1020.2
20260831001752 69 236 10.0 13.0 0.00 0.00 0.00 52 1020.2
20260831001247 69 257 10.0 13.0 0.00 0.00 0.00 51 1020.3
20260831000744 69 241 7.0 13.0 0.00 0.00 0.00 53 1020.1
20260831000241 69 253 8.0 11.0 0.00 0.00 0.00 53 1020.4
20260830235738 69 234 11.0 14.0 0.00 0.00 0.00 52 1020.2
20260830235232 69 240 9.0 11.0 0.00 0.00 0.00 54 1020.3
20260830234727 69 237 5.0 11.0 0.00 0.00 0.00 54 1019.7
20260830234224 70 251 7.0 9.0 0.00 0.00 0.00 54 1020.0
20260830233719 71 251 7.0 14.0 0.00 0.00 0.00 50 1020.0
20260830233214 71 289 7.0 13.0 0.00 0.00 0.00 50 1019.9
20260830232710 71 273 11.0 14.0 0.00 0.00 0.00 48 1019.7
20260830232206 71 217 9.0 11.0 0.00 0.00 0.00 50 1020.0
20260830231702 71 245 9.0 14.0 0.00 0.00 0.00 48 1020.0
20260830231201 71 283 10.0 15.0 0.00 0.00 0.00 50 1020.0
20260830230656 71 231 11.0 16.0 0.00 0.00 0.00 50 1020.0
20260830230156 72 245 10.0 16.0 0.00 0.00 0.00 48 1020.1
20260830225651 72 309 9.0 13.0 0.00 0.00 0.00 50 1020.1
20260830225146 72 223 12.0 20.0 0.00 0.00 0.00 48 1020.3
20260830224645 72 264 10.0 18.0 0.00 0.00 0.00 50 1020.2
20260830224141 72 260 14.0 23.0 0.00 0.00 0.00 48 1020.0
20260830223638 72 284 14.0 18.0 0.00 0.00 0.00 50 1020.1
20260830223137 72 274 16.0 21.0 0.00 0.00 0.00 48 1019.9
20260830222632 72 247 11.0 21.0 0.00 0.00 0.00 50 1020.4
20260830222128 72 286 19.0 22.0 0.00 0.00 0.00 49 1020.2
20260830221624 72 274 12.0 23.0 0.00 0.00 0.00 51 1020.2
20260830221120 73 249 9.0 20.0 0.00 0.00 0.00 50 1020.3
20260830220615 73 278 16.0 18.0 0.00 0.00 0.00 49 1020.6
20260830220108 72 273 11.0 21.0 0.00 0.00 0.00 52 1020.7
20260830215607 72 263 15.0 18.0 0.00 0.00 0.00 51 1020.2
20260830215102 72 281 12.0 16.0 0.00 0.00 0.00 51 1020.3
20260830214557 72 266 20.0 25.0 0.00 0.00 0.00 49 1020.2
20260830214051 73 259 15.0 21.0 0.00 0.00 0.00 50 1020.2
20260830213546 73 264 13.0 15.0 0.00 0.00 0.00 49 1020.3
20260830213041 73 236 12.0 21.0 0.00 0.00 0.00 47 1020.6
20260830212537 73 257 12.0 22.0 0.00 0.00 0.00 47 1020.8
20260830212032 74 261 14.0 25.0 0.00 0.00 0.00 48 1020.7
20260830211526 74 228 12.0 20.0 0.00 0.00 0.00 48 1020.8
20260830211020 73 242 14.0 18.0 0.00 0.00 0.00 49 1020.8
20260830210520 73 253 17.0 24.0 0.00 0.00 0.00 49 1020.9
20260830210015 74 257 14.0 18.0 0.00 0.00 0.00 47 1020.6
20260830205512 74 234 14.0 21.0 0.00 0.00 0.00 47 1020.6
20260830205009 74 268 12.0 25.0 0.00 0.00 0.00 47 1020.6
20260830204507 74 240 18.0 23.0 0.00 0.00 0.00 44 1020.6
20260830204001 73 248 11.0 23.0 0.00 0.00 0.00 46 1020.8
20260830203458 72 249 15.0 22.0 0.00 0.00 0.00 49 1020.3
20260830202957 71 227 10.0 14.0 0.00 0.00 0.00 52 1020.3
20260830202452 72 239 10.0 13.0 0.00 0.00 0.00 51 1020.1
20260830201948 72 238 11.0 17.0 0.00 0.00 0.00 50 1020.1
20260830201447 72 245 10.0 18.0 0.00 0.00 0.00 49 1019.9
20260830200943 73 232 10.0 16.0 0.00 0.00 0.00 47 1020.0
20260830200442 74 257 17.0 22.0 0.00 0.00 0.00 45 1020.1
20260830195937 74 256 19.0 24.0 0.00 0.00 0.00 45 1019.9
20260830195432 75 239 12.0 23.0 0.00 0.00 0.00 47 1019.7
20260830194930 75 236 16.0 27.0 0.00 0.00 0.00 44 1019.6
20260830194430 75 302 12.0 21.0 0.00 0.00 0.00 47 1019.4
20260830193930 75 236 20.0 31.0 0.00 0.00 0.00 45 1019.3
20260830193429 76 220 17.0 30.0 0.00 0.00 0.00 44 1018.9
20260830192924 77 252 22.0 30.0 0.00 0.00 0.00 45 1019.3
20260830192420 77 243 20.0 33.0 0.00 0.00 0.00 42 1019.3
20260830191915 78 261 25.0 29.0 0.00 0.00 0.00 41 1019.0
20260830191415 79 280 18.0 26.0 0.00 0.00 0.00 41 1019.1
20260830190910 79 309 17.0 22.0 0.00 0.00 0.00 43 1019.0
20260830190405 79 267 17.0 27.0 0.00 0.00 0.00 41 1019.0
20260830185904 79 275 15.0 25.0 0.00 0.00 0.00 40 1019.0
20260830185359 79 289 17.0 25.0 0.00 0.00 0.00 39 1018.9
20260830184854 79 265 19.0 30.0 0.00 0.00 0.00 39 1018.9
20260830184353 79 280 17.0 20.0 0.00 0.00 0.00 41 1018.9
20260830183848 79 286 16.0 26.0 0.00 0.00 0.00 40 1018.6
20260830183348 79 263 12.0 16.0 0.00 0.00 0.00 43 1019.0
20260830182844 78 274 13.0 20.0 0.00 0.00 0.00 41 1019.0
20260830182340 78 271 13.0 24.0 0.00 0.00 0.00 41 1018.9
20260830181836 78 230 12.0 24.0 0.00 0.00 0.00 44 1018.9
20260830181331 77 261 16.0 24.0 0.00 0.00 0.00 41 1018.7
20260830180830 77 234 17.0 23.0 0.00 0.00 0.00 43 1018.7
20260830180325 76 245 13.0 20.0 0.00 0.00 0.00 46 1018.8
20260830175824 76 235 17.0 23.0 0.00 0.00 0.00 43 1018.8
20260830175319 75 232 17.0 22.0 0.00 0.00 0.00 45 1018.8
20260830174814 76 248 13.0 18.0 0.00 0.00 0.00 48 1018.8
20260830174310 76 272 14.0 22.0 0.00 0.00 0.00 46 1018.9
20260830173809 76 246 14.0 20.0 0.00 0.00 0.00 48 1019.0
20260830173305 76 249 14.0 20.0 0.00 0.00 0.00 45 1019.0
20260830172801 75 243 13.0 18.0 0.00 0.00 0.00 46 1019.3
20260830172257 74 234 12.0 20.0 0.00 0.00 0.00 49 1019.3
20260830171753 73 251 12.0 20.0 0.00 0.00 0.00 51 1019.5
20260830171248 73 242 13.0 21.0 0.00 0.00 0.00 49 1019.3
20260830170742 73 249 13.0 17.0 0.00 0.00 0.00 49 1019.5
20260830170242 73 255 13.0 29.0 0.00 0.00 0.00 50 1019.3
20260830165741 73 281 16.0 24.0 0.00 0.00 0.00 48 1019.4
20260830165237 72 273 15.0 18.0 0.00 0.00 0.00 48 1019.7
20260830164733 71 255 14.0 17.0 0.00 0.00 0.00 49 1019.5
20260830164229 70 220 10.0 16.0 0.00 0.00 0.00 53 1019.9
20260830163725 70 241 16.0 21.0 0.00 0.00 0.00 50 1019.5
20260830163221 70 238 17.0 21.0 0.00 0.00 0.00 52 1019.7
20260830162715 71 246 12.0 22.0 0.00 0.00 0.00 49 1019.6
20260830162211 71 262 14.0 23.0 0.00 0.00 0.00 49 1019.9
20260830161706 71 264 16.0 23.0 0.00 0.00 0.00 49 1020.0
20260830161200 71 274 15.0 21.0 0.00 0.00 0.00 49 1019.9
20260830160657 71 228 16.0 27.0 0.00 0.00 0.00 49 1019.6
20260830160151 71 255 19.0 27.0 0.00 0.00 0.00 50 1019.6
20260830155648 70 246 15.0 24.0 0.00 0.00 0.00 51 1019.7
20260830155143 70 282 22.0 29.0 0.00 0.00 0.00 50 1019.9
20260830154638 70 262 23.0 31.0 0.00 0.00 0.00 49 1019.4
20260830154134 70 271 16.0 23.0 0.00 0.00 0.00 51 1019.7
20260830153631 71 240 18.0 25.0 0.00 0.00 0.00 51 1019.5
20260830153130 71 255 21.0 34.0 0.00 0.00 0.00 49 1019.4
20260830152629 71 252 17.0 24.0 0.00 0.00 0.00 49 1019.7
20260830152128 72 257 15.0 25.0 0.00 0.00 0.00 49 1019.5
20260830151624 72 252 16.0 23.0 0.00 0.00 0.00 50 1019.6
20260830151123 71 253 20.0 23.0 0.00 0.00 0.00 49 1019.7
20260830150618 70 271 9.0 16.0 0.00 0.00 0.00 53 1019.7
20260830150113 69 246 10.0 16.0 0.00 0.00 0.00 56 1019.9
20260830145612 69 267 14.0 20.0 0.00 0.00 0.00 55 1019.9
20260830145107 69 258 17.0 21.0 0.00 0.00 0.00 55 1019.7
20260830144603 69 264 18.0 25.0 0.00 0.00 0.00 56 1019.5
20260830144059 69 263 14.0 20.0 0.00 0.00 0.00 55 1019.6
20260830143555 69 300 17.0 18.0 0.00 0.00 0.00 56 1019.6
20260830143052 69 235 14.0 22.0 0.00 0.00 0.00 57 1019.6
20260830142548 68 268 15.0 20.0 0.00 0.00 0.00 58 1019.5
20260830142043 68 267 13.0 24.0 0.00 0.00 0.00 58 1019.5
20260830141538 67 251 14.0 22.0 0.00 0.00 0.00 59 1019.1
20260830141038 67 234 15.0 22.0 0.00 0.00 0.00 60 1019.4
20260830140533 66 273 17.0 22.0 0.00 0.00 0.00 59 1019.4
20260830140029 66 261 15.0 22.0 0.00 0.00 0.00 61 1019.4
20260830135524 65 240 8.0 11.0 0.00 0.00 0.00 64 1019.5
20260830135018 65 226 11.0 14.0 0.00 0.00 0.00 63 1019.4
20260830134514 65 245 9.0 16.0 0.00 0.00 0.00 63 1019.4
20260830134009 65 244 11.0 17.0 0.00 0.00 0.00 63 1019.4
20260830133505 65 225 11.0 16.0 0.00 0.00 0.00 62 1019.1
20260830133000 65 265 15.0 20.0 0.00 0.00 0.00 63 1019.0
20260830132456 65 236 15.0 17.0 0.00 0.00 0.00 64 1018.8
20260830131955 64 240 14.0 18.0 0.00 0.00 0.00 62 1018.8
20260830131454 64 240 10.0 15.0 0.00 0.00 0.00 64 1018.9
20260830130944 65 239 12.0 17.0 0.00 0.00 0.00 63 1018.9
20260830130440 65 245 11.0 20.0 0.00 0.00 0.00 62 1019.0
20260830125938 65 226 12.0 20.0 0.00 0.00 0.00 62 1018.9
20260830125434 64 245 17.0 23.0 0.00 0.00 0.00 62 1018.9
20260830124932 64 214 14.0 17.0 0.00 0.00 0.00 63 1019.0
20260830124427 64 260 12.0 15.0 0.00 0.00 0.00 63 1019.3
20260830123923 64 257 11.0 16.0 0.00 0.00 0.00 63 1019.4
20260830123420 65 253 8.0 16.0 0.00 0.00 0.00 62 1019.1
20260830122917 65 235 13.0 17.0 0.00 0.00 0.00 61 1019.0
20260830122412 65 264 15.0 20.0 0.00 0.00 0.00 60 1019.1
20260830121912 65 150 17.0 23.0 0.00 0.00 0.00 61 1018.8
20260830121408 65 235 16.0 20.0 0.00 0.00 0.00 61 1018.8
20260830120902 65 231 16.0 18.0 0.00 0.00 0.00 61 1018.9
20260830120358 65 242 13.0 17.0 0.00 0.00 0.00 61 1018.4
20260830115854 65 234 10.0 16.0 0.00 0.00 0.00 62 1018.6
20260830115350 64 239 11.0 18.0 0.00 0.00 0.00 61 1018.3
20260830114845 64 242 9.0 10.0 0.00 0.00 0.00 65 1018.4
20260830114341 65 235 6.0 10.0 0.00 0.00 0.00 64 1018.4
20260830113836 66 258 9.0 17.0 0.00 0.00 0.00 60 1018.6
20260830113331 66 254 9.0 11.0 0.00 0.00 0.00 62 1018.6
20260830112827 65 256 10.0 14.0 0.00 0.00 0.00 60 1018.4
20260830112323 65 221 10.0 14.0 0.00 0.00 0.00 63 1018.0
20260830111819 66 226 8.0 14.0 0.00 0.00 0.00 62 1018.1
20260830111314 65 247 10.0 16.0 0.00 0.00 0.00 62 1018.2
20260830110814 65 245 9.0 13.0 0.00 0.00 0.00 62 1018.2
20260830110311 65 254 9.0 11.0 0.00 0.00 0.00 62 1018.1
20260830105809 65 244 5.0 11.0 0.00 0.00 0.00 61 1018.3
20260830105306 65 260 9.0 13.0 0.00 0.00 0.00 61 1018.3
20260830104802 65 251 9.0 15.0 0.00 0.00 0.00 61 1018.2
20260830104258 65 262 8.0 15.0 0.00 0.00 0.00 62 1018.2
20260830103757 65 249 8.0 14.0 0.00 0.00 0.00 64 1018.3
20260830103253 65 227 9.0 14.0 0.00 0.00 0.00 64 1018.2
20260830102751 65 215 7.0 13.0 0.00 0.00 0.00 64 1018.1
20260830102247 64 255 9.0 11.0 0.00 0.00 0.00 65 1018.2
20260830101743 64 240 8.0 11.0 0.00 0.00 0.00 66 1018.1
20260830101238 63 229 7.0 11.0 0.00 0.00 0.00 67 1018.4
20260830100737 62 252 8.0 10.0 0.00 0.00 0.00 69 1018.6
20260830100232 62 253 8.0 10.0 0.00 0.00 0.00 71 1018.4
20260830095730 62 243 7.0 9.0 0.00 0.00 0.00 71 1018.4
20260830095227 63 223 8.0 13.0 0.00 0.00 0.00 68 1018.3
20260830094722 64 221 8.0 11.0 0.00 0.00 0.00 67 1018.3
20260830094218 64 245 9.0 14.0 0.00 0.00 0.00 64 1018.7
20260830093713 65 229 8.0 11.0 0.00 0.00 0.00 64 1018.3
20260830093210 65 221 9.0 13.0 0.00 0.00 0.00 62 1018.4
20260830092709 65 246 9.0 11.0 0.00 0.00 0.00 61 1018.4
20260830092206 65 244 9.0 11.0 0.00 0.00 0.00 61 1018.2
20260830091701 65 249 10.0 14.0 0.00 0.00 0.00 61 1018.0
20260830091200 65 231 9.0 13.0 0.00 0.00 0.00 61 1018.1
20260830090655 65 236 9.0 14.0 0.00 0.00 0.00 63 1018.0
20260830090151 64 249 9.0 13.0 0.00 0.00 0.00 63 1018.0
20260830085649 63 231 8.0 11.0 0.00 0.00 0.00 65 1018.0
20260830085146 63 224 6.0 7.0 0.00 0.00 0.00 68 1017.4